Weather in Tomsharovo

Russia / Mari El Republic     56°46′05″N   48°07′25″E
temp.,
°C
wind,
m/s
gust,
m/s
humid.,
%
clouds,
%
prec.,
mm/h
press.,
hPa
HPBL,
m
19 september, sun
sun1900:000nw37815 0.0 1024160
03:000nw38825 0.0 1025171
06:00−1nnw37925 0.0 1025156
09:00+5nnw356433 0.0 1025653
12:00+9nw344898 0.0 10251374
15:00+10nnw4545100 0.0 10251542
18:00+5n33625 0.0 102638
21:00+2ne38796 0.0 1027194
20 september, mon
mon2000:000ne238797 0.0 102864
03:00−1ne3486100 0.0 102960
06:00−1ene2579100 0.0 1028112
09:00+5e3452100 0.0 1029849
12:00+8e4543100 0.0 10281176
15:00+9ene4542100 0.0 10281211
18:00+5e3559100 0.0 102888
21:00+3e3768100 0.0 1028128
21 september, tue
tue2100:00+3e3970100 0.0 1028195
03:00+2e31075100 0.0 1028223
06:00+2e41080100 0.0 1027292
09:00+6ese5861100 0.0 1027568
12:00+9ese5647100 0.0 1026978
15:00+11ese564480 0.0 10241085
18:00+7e3861100 0.0 1024222
21:00+5e4106872 0.0 1024284
22 september, wed
wed2200:00+4e4107595 0.0 1023244
03:00+3e4117681 0.0 1023267
06:00+5e51268100 0.0 1022357
09:00+9e6125485 0.0 1022488
12:00+12e61047100 0.0 1022838
15:00+12ese5115399 0.0 1022877
18:00+9e5115885 0.0 1022434
21:00+9e41259100 0.0 1023431
23 september, thu
thu2300:00+9e51263100 0.0 1022499
03:00+8ese41184100 0.8 1022444
06:00+8ese41092100 0.7 1022397
09:00+9ese41189100 0.7 1022464
12:00+12se4107389 0.0 1022590
15:00+14sse61059100 0.0 1021952
18:00+11sse51290100 0.3 1022586
21:00+10sse61390100 0.6 1022674